Location: Nitra
(0.0000°N, 18.0833°E)
Time: 05:30:57
(UTC+02:00)

Meteor 2-21 - Visible Passes

Search period start: 13 May 2021 00:00
Search period end: 23 May 2021 00:00
Orbit: 933 x 967 km, 82.5° (Epoch: 12 May)

Date Brightness Start Highest point End Pass type
(mag) Time Alt. Az. Time Alt. Az. Time Alt. Az.
13 May 6.3 20:07:08 10° NW 20:12:22 30° W 20:17:41 10° SSW visible
14 May 7.2 20:26:37 10° WNW 20:30:08 16° W 20:33:41 10° SW visible
15 May 7.3 05:59:23 10° ESE 06:02:16 14° E 06:05:07 10° ENE visible
15 May 4.5 18:57:10 10° N 19:03:19 73° E 19:09:30 10° S visible
16 May 6.8 06:15:04 10° SSE 06:20:01 26° E 06:24:56 10° NE visible
16 May 5.1 19:14:58 10° NNW 19:21:03 62° W 19:27:12 10° S visible
17 May 6.2 19:33:21 10° NNW 19:38:49 34° W 19:44:20 10° SSW visible
18 May 7.1 19:52:32 10° NW 19:56:34 18° W 20:00:38 10° SW visible
19 May 7.4 05:26:44 10° ESE 05:28:40 12° E 05:30:37 10° ENE visible
20 May 6.8 05:41:47 10° SE 05:46:26 23° E 05:51:03 10° NE visible
21 May 5.7 05:58:30 10° SSE 06:04:11 43° E 06:09:50 10° NNE visible
21 May 6.1 18:59:36 10° NNW 19:05:15 38° W 19:10:57 10° SSW visible
22 May 4.6 06:15:53 10° S 06:21:56 81° E 06:27:57 10° N visible
22 May 7.1 19:18:34 10° NW 19:23:01 21° W 19:27:30 10° SW visible
